Theta_e
349 355 362 362 363 366 366 366 366 366 366 366 367 365 363 363 365 366 364 363 363 361 362 363 363 362 363 364 363 360 361 360 359 359 360 361 359 359 359 359 359 356 359
351 355 364 363 363 364 367 366 366 366 367 367 367 366 363 362 364 364 364 364 363 363 363 362 362 362 362 360 359 359 360 363 362 360 360 361 361 360 360 360 359 357 359
352 356 359 364 366 365 366 366 367 367 368 368 368 368 367 365 365 365 364 361 362 362 363 362 363 363 363 359 358 359 360 362 360 361 360 356 356 358 359 356 356 356 356
354 355 357 363 365 364 366 367 367 366 364 367 367 366 366 366 365 363 362 360 359 359 361 362 362 363 363 361 356 360 361 361 360 359 352 353 351 356 355 355 355 355 354
353 355 357 365 365 364 365 366 367 367 367 367 367 367 366 364 363 360 359 360 359 358 360 362 360 361 363 362 361 360 360 356 356 350 348 350 354 354 354 355 354 354 354
354 357 361 364 362 363 363 366 365 367 368 369 368 368 366 367 364 364 364 363 360 358 358 360 360 361 361 360 359 357 357 355 353 344 345 349 350 357 356 356 355 354 354
351 355 358 365 365 364 364 366 367 366 365 367 368 367 365 364 364 363 363 362 361 362 362 361 360 359 359 358 356 355 354 355 344 344 343 347 346 355 356 356 356 355 354
352 355 356 362 364 365 364 364 365 363 364 365 367 366 366 365 362 361 361 360 359 358 358 358 357 357 356 356 355 355 356 354 347 344 342 346 345 351 354 357 355 356 357
354 354 354 355 360 364 366 364 363 363 364 364 364 364 363 361 361 361 360 360 360 359 356 357 356 356 356 354 352 352 353 355 347 346 344 343 344 350 355 355 356 356 356
352 352 352 353 355 357 359 363 362 362 364 363 362 362 362 360 359 358 361 360 358 358 358 356 356 357 356 355 355 356 353 354 351 348 346 346 348 349 352 355 356 357 355
350 351 351 352 352 355 356 359 362 362 362 362 360 361 358 347 343 347 355 357 356 356 356 357 357 356 357 356 356 354 356 354 353 349 346 346 350 351 351 355 357 357 356
346 348 351 351 351 353 356 355 354 354 354 353 353 350 346 345 341 345 353 355 355 355 355 355 354 355 356 354 350 350 350 349 349 349 349 351 353 355 355 356 359 358 356
344 348 350 351 351 353 353 352 352 353 351 350 350 347 346 345 343 342 342 344 345 352 350 350 348 347 346 350 349 350 348 347 346 346 347 351 352 353 356 355 355 355 355
346 347 349 351 350 352 352 351 351 352 350 349 348 347 345 343 342 340 339 339 340 342 344 344 342 343 344 346 348 348 347 346 346 346 346 349 349 354 356 356 357 356 355
342 348 348 350 350 351 350 350 351 350 349 348 346 346 348 344 342 341 339 338 338 340 340 340 339 341 342 344 348 349 347 344 345 346 345 348 351 353 356 358 357 356 355
343 344 348 349 350 350 349 349 350 350 347 344 344 343 345 346 345 342 340 339 338 338 338 338 339 339 340 342 344 348 349 349 348 348 350 349 354 355 358 360 358 357 357
344 345 345 348 350 349 348 348 347 347 347 344 343 344 345 346 345 346 343 342 342 343 342 341 341 342 343 345 346 348 348 349 350 350 350 349 350 354 357 360 359 360 360
345 345 347 349 349 349 348 348 348 347 347 347 344 344 346 346 347 346 346 345 345 345 344 344 343 343 343 344 343 344 345 347 347 349 350 352 351 350 351 357 362 362 359
344 345 346 348 348 348 348 349 348 348 346 345 344 344 345 347 348 346 347 346 346 346 345 344 344 343 342 343 343 345 346 347 347 348 349 350 350 351 351 353 359 362 359
344 345 345 347 346 346 346 347 347 346 343 343 343 343 346 346 347 347 348 346 348 346 346 345 343 344 344 344 344 348 347 348 348 348 348 349 349 350 351 353 354 356 361
342 342 343 343 344 344 344 344 343 343 344 343 343 344 344 345 347 347 345 346 348 346 346 346 344 343 342 345 343 342 343 344 345 347 347 349 348 350 351 352 353 354 355
339 341 342 343 343 344 345 345 345 344 345 346 346 346 345 345 346 346 345 345 344 344 345 345 345 343 343 344 340 337 334 336 339 342 345 345 345 348 349 351 352 353 355
338 340 342 343 344 344 346 344 344 344 345 343 344 346 346 346 345 345 345 345 344 343 342 345 345 344 341 342 344 339 331 330 332 338 341 343 346 345 349 350 350 351 352
338 342 344 344 344 346 346 345 343 342 341 343 343 344 346 347 346 346 346 345 342 342 343 345 346 345 342 340 342 342 340 339 334 332 338 339 344 344 345 347 349 350 350
341 341 343 344 346 346 347 346 344 344 343 344 345 344 344 345 347 347 348 346 346 344 342 344 345 344 344 342 340 340 341 340 340 336 332 335 340 342 346 345 346 349 350
340 343 344 344 344 344 342 340 339 339 342 344 344 342 344 345 345 346 346 346 347 345 344 342 344 345 345 343 342 340 340 340 337 336 333 334 335 340 340 343 345 348 349
Wind_Speed
2 5 16 17 16 18 19 19 20 21 20 18 19 19 18 17 16 15 15 14 13 13 13 14 14 15 16 16 15 15 14 14 13 13 13 14 13 13 13 13 12 11 14
9 7 16 17 18 18 18 18 19 19 19 18 18 17 17 16 15 15 16 15 15 13 13 14 14 15 15 16 15 14 13 13 13 12 10 12 13 11 13 12 12 11 12
9 9 13 17 18 18 18 18 18 18 19 18 17 16 16 16 16 16 16 17 12 12 14 13 14 15 14 16 15 13 12 12 11 13 10 6 7 10 12 10 10 10 10
10 7 11 17 18 19 18 18 18 19 19 17 17 16 16 17 16 16 17 17 14 13 14 14 13 14 14 14 14 12 11 12 11 11 6 5 6 9 10 9 8 9 9
9 6 12 17 18 19 19 18 18 18 19 18 17 17 17 17 17 16 16 17 15 14 13 13 13 12 13 12 12 10 11 12 11 7 5 4 3 7 8 9 7 7 7
7 6 15 18 18 18 18 18 18 17 18 17 17 16 16 17 18 17 16 15 16 14 13 12 12 12 12 10 9 7 7 6 8 5 4 4 3 6 6 6 7 7 6
7 6 11 16 17 17 17 17 17 17 17 16 16 16 16 15 17 15 16 14 13 12 12 12 12 9 9 7 6 6 5 8 4 3 3 3 3 4 5 5 5 5 7
10 7 8 15 16 16 17 17 16 17 16 15 15 16 14 15 15 16 14 16 12 11 10 10 9 8 7 6 4 6 7 7 6 3 3 3 2 2 2 5 3 5 6
6 7 6 7 11 16 15 16 16 15 15 15 14 15 15 13 15 15 14 13 13 10 8 7 7 7 4 2 2 3 6 8 4 3 4 2 4 4 2 4 4 5 5
5 5 6 5 6 6 7 15 15 15 15 14 13 13 16 15 12 10 11 11 11 10 8 5 5 4 4 1 3 4 6 8 3 3 3 2 6 8 7 5 8 6 6
6 5 5 6 5 5 6 10 15 15 13 13 11 11 8 4 5 5 6 10 9 9 8 6 3 2 3 2 1 3 6 1 4 3 2 5 6 8 11 10 8 8 9
10 7 6 5 5 5 6 5 6 6 4 3 4 4 3 3 1 3 7 9 9 8 8 6 3 3 3 1 2 3 2 1 3 4 3 7 7 8 10 13 10 9 11
11 8 8 6 5 7 5 3 2 2 3 2 5 4 3 2 2 1 1 2 1 7 2 1 1 1 2 2 2 2 3 2 2 3 5 8 9 10 10 9 11 11 12
10 10 9 8 6 7 3 3 3 4 5 5 3 5 4 3 3 3 2 2 2 1 2 2 1 2 4 3 4 4 4 3 3 3 5 9 9 9 11 12 11 11 13
9 10 10 9 8 7 4 3 3 5 3 3 4 3 3 3 3 2 2 2 2 2 2 3 3 3 4 4 4 4 5 5 6 3 3 10 8 10 11 13 11 11 13
10 10 9 10 9 7 7 5 5 3 2 4 3 4 4 3 4 3 3 3 3 3 2 3 3 3 4 4 5 4 6 6 6 7 5 5 11 12 13 14 13 11 12
11 10 11 11 8 7 7 5 4 3 3 3 4 5 6 5 5 5 3 3 4 3 4 4 4 3 4 4 5 4 5 6 6 7 6 5 6 10 10 12 13 11 12
11 13 11 10 11 9 8 4 2 3 3 3 4 3 5 6 6 5 4 4 3 3 3 4 4 4 4 4 3 4 4 5 7 6 5 5 4 5 5 9 10 12 13
12 11 11 12 12 10 6 3 4 4 4 2 3 4 6 7 8 6 4 3 4 3 3 4 4 4 3 4 4 4 4 4 5 5 6 6 6 6 4 9 10 13 14
9 10 10 10 8 7 5 5 3 3 4 3 4 5 7 6 8 7 4 4 4 3 4 4 5 4 4 3 5 4 4 4 4 5 6 5 6 7 7 7 5 6 12
9 9 10 10 8 8 4 3 3 5 3 3 4 5 5 5 8 6 4 4 4 4 5 5 4 5 4 3 1 2 3 6 6 6 6 5 7 8 7 7 6 5 5
12 11 10 10 8 7 5 2 2 2 2 2 2 4 7 7 6 5 6 5 5 3 5 5 5 2 2 4 2 1 3 3 2 6 6 7 9 6 8 9 8 7 7
10 12 11 8 6 6 5 3 2 1 2 1 2 5 6 8 8 8 7 5 5 5 4 5 4 5 3 2 5 3 1 3 3 2 2 5 6 6 7 8 8 9 9
9 5 5 7 7 5 4 3 4 4 5 3 3 3 3 6 7 7 6 6 5 4 5 5 5 5 3 3 1 5 2 2 0 4 2 2 4 7 8 6 7 8 9
6 6 4 6 8 8 7 6 2 4 4 2 3 4 4 4 6 7 8 7 7 6 7 8 6 6 4 3 3 2 2 3 3 4 4 3 2 3 6 7 7 7 9
4 5 8 10 8 10 8 7 10 9 4 4 7 5 4 3 4 8 8 8 8 8 9 7 7 7 6 5 3 3 3 3 3 3 3 3 3 4 3 5 7 7 7
Wind_Direction
145 150 137 128 121 114 111 111 111 114 119 121 120 123 126 124 120 113 112 108 103 101 101 98 98 98 100 101 101 103 101 103 99 95 96 90 94 92 90 84 81 83 85
132 148 134 129 124 122 118 115 114 118 120 124 122 124 126 125 125 119 114 112 108 107 104 106 106 107 101 102 104 108 110 102 101 94 93 93 87 84 89 86 88 90 92
128 139 133 134 127 125 122 120 121 124 125 124 126 128 128 125 122 120 119 113 114 112 111 113 112 108 104 106 110 110 111 103 90 97 90 76 85 85 88 87 87 85 87
128 128 134 132 131 131 128 128 129 131 129 128 127 124 123 122 121 119 119 117 118 117 109 105 100 104 111 109 115 117 106 93 92 88 76 80 94 95 93 90 89 94 97
126 120 138 136 135 136 135 133 134 136 136 133 132 133 133 129 124 119 119 120 122 123 121 110 114 110 103 110 112 120 117 101 88 69 58 67 83 116 109 109 106 107 98
122 119 139 141 140 141 141 138 140 136 135 137 135 135 132 130 125 125 124 126 128 129 122 113 109 113 119 125 129 124 120 98 93 103 92 73 57 112 124 131 136 129 128
126 128 142 147 148 149 150 149 146 144 143 141 138 136 137 132 125 125 125 119 119 118 116 116 119 123 126 128 142 141 142 132 132 139 160 119 110 49 142 169 151 154 144
138 139 152 155 155 156 158 153 149 151 150 151 148 143 144 139 134 133 132 129 129 124 122 123 125 120 118 120 138 176 186 174 136 138 144 150 157 145 190 162 164 170 161
139 137 145 156 166 165 161 160 159 159 158 159 156 152 142 151 144 145 142 142 139 136 137 136 132 127 119 152 190 216 225 217 169 167 179 170 205 210 188 228 171 206 196
148 146 155 158 168 164 164 168 166 170 167 167 163 163 156 156 146 148 151 156 152 150 152 150 152 148 153 201 270 274 253 235 205 193 174 217 230 224 218 245 204 218 232
173 172 167 165 168 161 162 179 177 176 182 177 173 178 173 58 102 272 182 172 172 166 171 167 165 187 235 264 342 311 276 156 212 236 219 223 227 221 215 218 231 219 228
182 192 181 173 170 167 183 193 166 179 177 166 160 204 150 136 172 204 186 199 189 189 187 191 197 237 324 1 312 342 278 234 211 253 241 215 220 218 217 222 225 217 226
186 190 190 184 179 180 188 182 193 179 138 194 180 183 128 171 183 172 251 300 344 211 201 192 350 341 296 298 284 269 273 260 208 214 242 230 224 236 221 216 219 233 232
191 192 190 192 187 199 183 189 188 191 173 199 171 170 158 179 206 209 196 241 252 238 235 225 249 263 276 289 270 261 258 245 253 247 241 238 249 240 228 231 243 234 227
195 199 194 191 197 200 193 198 190 209 194 162 163 173 175 183 196 198 230 191 225 242 223 234 246 258 269 282 266 248 252 250 257 258 255 254 246 239 242 250 238 219 227
196 203 195 198 197 193 202 208 210 189 169 150 184 179 200 193 201 201 209 213 219 224 247 241 243 251 261 270 272 245 256 250 240 246 238 246 243 238 245 237 229 225 234
193 192 202 198 192 194 203 205 201 200 170 191 194 194 193 202 209 212 207 214 209 217 234 245 250 257 263 272 263 267 264 256 243 236 234 213 225 236 246 229 216 222 233
192 193 186 198 195 196 203 196 191 217 213 196 174 210 201 199 211 211 211 227 211 193 215 247 251 256 258 260 272 278 272 268 270 261 246 227 220 240 239 256 240 217 228
189 193 196 195 196 192 171 199 196 210 224 198 168 207 210 204 213 210 207 206 198 228 204 228 250 228 243 255 264 271 262 271 276 267 251 247 235 235 232 239 250 220 220
195 196 199 200 194 150 136 177 172 196 227 190 205 212 203 206 208 205 206 203 203 223 225 215 230 228 234 243 271 275 261 253 261 250 254 254 248 245 242 241 237 237 222
183 190 197 191 182 148 159 206 204 230 192 195 203 223 210 220 206 202 180 197 210 222 240 210 212 214 235 214 223 289 278 253 238 236 240 235 241 241 236 238 232 220 227
191 192 189 200 171 172 174 196 192 118 255 242 206 197 187 203 214 191 196 194 190 218 238 244 222 181 206 188 165 140 318 317 273 238 233 235 238 232 238 234 229 217 215
192 188 189 181 165 164 160 124 109 72 282 299 256 256 226 186 191 208 203 203 197 189 208 211 228 218 203 199 209 157 175 247 315 323 267 236 234 221 229 229 225 220 212
198 149 165 141 115 102 136 173 209 232 242 211 192 235 229 197 190 190 198 208 214 207 226 226 208 224 191 211 203 231 201 149 322 317 313 318 246 227 228 232 234 226 213
117 172 121 117 116 136 153 136 185 230 238 271 249 237 219 214 201 198 201 195 204 205 224 221 207 207 198 223 203 173 200 204 212 223 285 320 331 240 240 233 231 231 219
54 142 144 134 146 164 151 145 168 197 193 279 273 256 220 200 227 210 205 207 213 211 217 217 212 204 202 206 209 214 203 183 182 189 226 273 266 286 260 240 230 227 221